Location: Wingville
(42.9917°N, 90.4915°W)
Time: 09:42:08
(UTC+00:00)

M-CUBED/EXP-1 PRIME - Visible Passes

Search period start: 29 June 2022 00:00
Search period end: 09 July 2022 00:00
Orbit: 423 x 634 km, 101.7° (Epoch: 28 June)

Date Brightness Start Highest point End Pass type
(mag) Time Alt. Az. Time Alt. Az. Time Alt. Az.
29 Jun ? 06:54:02 48° NE 06:54:02 48° NE 06:56:56 10° N visible
30 Jun ? 06:42:46 33° ENE 06:42:46 33° ENE 06:45:47 10° N visible
30 Jun ? 08:18:02 11° WNW 08:18:02 11° WNW 08:18:17 10° WNW visible
01 Jul ? 06:31:32 23° ENE 06:31:48 23° ENE 06:34:31 10° N visible
01 Jul ? 08:06:46 16° WNW 08:06:46 16° WNW 08:08:02 10° NW visible
02 Jul ? 06:20:16 16° ENE 06:20:52 17° ENE 06:23:06 10° NNE visible
02 Jul ? 07:55:30 23° WNW 07:55:30 23° WNW 07:57:25 10° NW visible
03 Jul ? 06:08:59 11° ENE 06:09:57 12° ENE 06:11:24 10° NNE visible
03 Jul ? 07:44:14 34° WNW 07:44:14 34° WNW 07:46:38 10° NNW visible
04 Jul ? 07:32:57 50° NW 07:32:57 50° NW 07:35:43 10° NNW visible
05 Jul ? 07:21:40 67° N 07:21:40 67° N 07:24:42 10° NNW visible
06 Jul ? 07:10:21 53° ENE 07:10:21 53° ENE 07:13:35 10° N visible
07 Jul ? 06:59:03 35° ENE 06:59:11 36° ENE 07:02:24 10° N visible
07 Jul ? 08:34:18 11° WNW 08:34:18 11° WNW 08:34:51 10° WNW visible
08 Jul ? 06:47:43 24° ENE 06:48:10 25° ENE 06:51:07 10° N visible
08 Jul ? 08:22:58 17° WNW 08:22:58 17° WNW 08:24:33 10° NW visible
